Date String (YYYY-MM-DD hh:mm:ss) UTC,Instrument flags,absolute air pressure of the measurement (hPa),sample flow rate (lpm),inlet stack bypass flow (lpm),air temperature of the measurement (°C),ambient temperature measured by the external sensor (°C),aerosol sample conditioner tube jacket temperature (°C),OPC LED temperature (°C),internal box temperature (°C),relative humidity of the measurement (%),span deviation,mass concentration of particles derived from Lorenz-Mie calculation of OPC scattering (μg/m³),mass concentration of particles derived from Lorenz-Mie calculation of OPC scattering (μg/m³),mass concentration of particles derived from Lorenz-Mie calculation of OPC scattering (μg/m³)
DateTimeUTC,F1_M11,P_M11,Q1_M11,Q2_M11,T1_M11,T2_M11,T3_M11,T4_M11,T5_M11,U1_M11,ZSPAN_M11,X0_M11,X2_M11,X1_M11
2023-09-09 12:00:00,SystemResetWarning,0835.6,5.00,000.00,028.7,027.6,000.0,037.0,030.3,12.1,0000.0,0003.30,0001.44,0001.09
2023-09-09 12:01:00,SystemResetWarning,0835.6,4.99,000.00,028.7,027.6,000.0,037.0,030.3,12.1,0000.0,0002.87,0001.41,0001.08
2023-09-09 12:02:00,SystemResetWarning,0835.6,5.00,000.00,028.7,027.6,000.0,037.0,030.3,12.1,0000.0,0002.60,0001.43,0001.08
2023-09-09 12:03:00,SystemResetWarning,0835.6,5.00,000.00,028.7,027.7,000.0,037.1,030.3,12.0,0000.0,0002.68,0001.46,0001.09
2023-09-09 12:04:00,SystemResetWarning,0835.6,5.00,000.00,028.8,027.7,000.0,037.1,030.4,11.9,0000.0,0002.66,0001.46,0001.09
2023-09-09 12:05:00,SystemResetWarning,0835.7,5.00,000.00,028.8,027.7,000.0,037.1,030.4,11.9,0000.0,0002.58,0001.47,0001.10
2023-09-09 12:06:00,SystemResetWarning,0835.6,5.00,000.00,028.8,027.3,000.0,037.1,030.4,11.9,0000.0,0002.73,0001.52,0001.11
2023-09-09 12:07:00,SystemResetWarning,0835.6,5.00,000.00,028.8,025.4,000.0,037.0,030.1,12.0,0000.0,0002.73,0001.49,0001.12
2023-09-09 12:08:00,SystemResetWarning,0835.6,5.01,000.00,028.7,024.6,000.0,036.9,029.9,12.0,0000.0,0003.36,0001.48,0001.13
2023-09-09 12:09:00,SystemResetWarning,0835.6,5.01,000.00,028.6,024.7,000.0,036.9,029.7,12.1,0000.0,0004.40,0001.50,0001.14
2023-09-09 12:10:00,SystemResetWarning,0835.6,5.00,000.00,028.5,025.0,000.0,036.9,029.6,12.2,0000.0,0004.78,0001.54,0001.14
2023-09-09 12:11:00,SystemResetWarning,0835.6,5.00,000.00,028.4,025.4,000.0,036.9,029.6,12.2,0000.0,0005.07,0001.62,0001.15
2023-09-09 12:12:00,SystemResetWarning,0835.7,5.00,000.00,028.4,025.7,000.0,036.9,029.7,12.1,0000.0,0005.45,0001.64,0001.14
2023-09-09 12:13:00,SystemResetWarning,0835.7,5.00,000.00,028.4,026.0,000.0,036.9,029.7,12.1,0000.0,0005.44,0001.63,0001.14
2023-09-09 12:14:00,SystemResetWarning,0835.8,5.00,000.00,028.4,026.3,000.0,036.9,029.8,12.2,0000.0,0005.52,0001.64,0001.13
2023-09-09 12:15:00,SystemResetWarning,0835.8,5.00,000.00,028.4,026.5,000.0,036.9,029.8,12.3,0000.0,0005.60,0001.66,0001.12
2023-09-09 12:16:00,SystemResetWarning,0835.8,5.00,000.00,028.4,026.7,000.0,036.9,029.9,12.3,0000.0,0005.72,0001.68,0001.11
2023-09-09 12:17:00,SystemResetWarning,0835.8,5.00,000.00,028.4,026.8,000.0,036.9,029.9,12.3,0000.0,0006.04,0001.69,0001.09
2023-09-09 12:18:00,SystemResetWarning,0835.8,4.99,000.00,028.4,027.0,000.0,036.9,030.0,12.3,0000.0,0006.76,0001.75,0001.09
2023-09-09 12:19:00,SystemResetWarning,0835.8,4.99,000.00,028.4,027.1,000.0,036.9,030.0,12.3,0000.0,0006.98,0001.75,0001.07
2023-09-09 12:20:00,SystemResetWarning,0835.8,5.00,000.00,028.5,027.2,000.0,036.9,030.0,12.3,0000.0,0006.08,0001.74,0001.07
2023-09-09 12:21:00,SystemResetWarning,0835.9,5.00,000.00,028.5,027.2,000.0,036.9,030.1,12.3,0000.0,0007.09,0001.78,0001.07
2023-09-09 12:22:00,SystemResetWarning,0835.9,5.00,000.00,028.5,027.3,000.0,036.9,030.1,12.4,0000.0,0008.50,0001.79,0001.07
2023-09-09 12:23:00,SystemResetWarning,0835.9,5.01,000.00,028.5,027.4,000.0,036.9,030.1,12.3,0000.0,0008.63,0001.87,0001.07
2023-09-09 12:24:00,SystemResetWarning,0835.9,5.00,000.00,028.6,027.4,000.0,036.9,030.1,12.2,0000.0,0008.87,0001.95,0001.08
2023-09-09 12:25:00,SystemResetWarning,0835.9,5.00,000.00,028.6,027.5,000.0,036.9,030.2,12.1,0000.0,0008.97,0002.00,0001.09
2023-09-09 12:26:00,SystemResetWarning,0835.9,5.00,000.00,028.6,027.5,000.0,037.0,030.2,12.2,0000.0,0009.30,0002.04,0001.10
2023-09-09 12:27:00,SystemResetWarning,0836.0,5.00,000.00,028.6,027.6,000.0,037.0,030.2,12.2,0000.0,0009.68,0002.05,0001.11
2023-09-09 12:28:00,SystemResetWarning,0836.1,4.99,000.00,028.7,027.6,000.0,037.0,030.3,11.8,0000.0,0009.64,0002.08,0001.13
2023-09-09 12:29:00,SystemResetWarning,0836.1,5.00,000.00,028.7,027.6,000.0,037.0,030.3,11.8,0000.0,0009.52,0002.06,0001.13
2023-09-09 12:30:00,SystemResetWarning,0836.1,5.00,000.00,028.7,027.7,000.0,037.0,030.3,12.1,0000.0,0009.49,0002.11,0001.14
2023-09-09 12:31:00,SystemResetWarning,0836.2,5.00,000.00,028.8,027.7,000.0,037.1,030.4,12.3,0000.0,0009.43,0002.14,0001.13
2023-09-09 12:32:00,SystemResetWarning,0836.2,5.01,000.00,028.8,027.7,000.0,037.1,030.4,12.5,0000.0,0008.85,0002.11,0001.13
2023-09-09 12:33:00,SystemResetWarning,0836.2,5.01,000.00,028.8,027.7,000.0,037.1,030.4,12.4,0000.0,0007.50,0002.17,0001.13
2023-09-09 12:34:00,SystemResetWarning,0836.2,4.99,000.00,028.8,027.7,000.0,037.1,030.4,12.2,0000.0,0007.57,0002.13,0001.14
2023-09-09 12:35:00,SystemResetWarning,0836.2,4.99,000.00,028.8,027.6,000.0,037.1,030.4,11.8,0000.0,0008.84,0002.13,0001.15
2023-09-09 12:36:00,SystemResetWarning,0836.2,4.99,000.00,028.8,026.0,000.0,037.1,030.2,11.6,0000.0,0010.03,0002.14,0001.16
2023-09-09 12:37:00,SystemResetWarning,0836.2,5.01,000.00,028.7,024.7,000.0,037.0,030.0,11.6,0000.0,0010.78,0002.24,0001.17
2023-09-09 12:38:00,SystemResetWarning,0836.2,5.00,000.00,028.7,024.7,000.0,036.9,029.8,11.7,0000.0,0010.48,0002.29,0001.17
2023-09-09 12:39:00,SystemResetWarning,0836.2,5.01,000.00,028.5,024.9,000.0,036.9,029.6,11.7,0000.0,0010.67,0002.34,0001.16
2023-09-09 12:40:00,SystemResetWarning,0836.2,4.99,000.00,028.4,025.3,000.0,036.9,029.6,11.6,0000.0,0011.12,0002.38,0001.16
2023-09-09 12:41:00,SystemResetWarning,0836.2,5.01,000.00,028.4,025.6,000.0,036.9,029.6,11.6,0000.0,0012.18,0002.42,0001.18
2023-09-09 12:42:00,SystemResetWarning,0836.2,5.00,000.00,028.4,025.9,000.0,036.9,029.7,11.5,0000.0,0012.32,0002.47,0001.18
2023-09-09 12:43:00,SystemResetWarning,0836.2,4.99,000.00,028.4,026.2,000.0,036.9,029.8,11.5,0000.0,0012.45,0002.49,0001.18
2023-09-09 12:44:00,SystemResetWarning,0836.3,4.99,000.00,028.4,026.4,000.0,036.9,029.8,11.5,0000.0,0013.23,0002.47,0001.20
2023-09-09 12:45:00,SystemResetWarning,0836.3,5.00,000.00,028.4,026.6,000.0,036.9,029.9,11.6,0000.0,0013.47,0002.56,0001.20
2023-09-09 12:46:00,SystemResetWarning,0836.3,5.00,000.00,028.4,026.8,000.0,036.9,029.9,11.6,0000.0,0012.80,0002.71,0001.21
2023-09-09 12:47:00,SystemResetWarning,0836.3,5.01,000.00,028.4,027.0,000.0,036.9,029.9,11.7,0000.0,0012.25,0002.72,0001.21
2023-09-09 12:48:00,SystemResetWarning,0836.3,5.01,000.00,028.4,027.1,000.0,036.9,030.0,11.8,0000.0,0011.59,0002.67,0001.19
2023-09-09 12:49:00,SystemResetWarning,0836.4,4.99,000.00,028.5,027.2,000.0,036.9,030.0,11.8,0000.0,0011.46,0002.57,0001.19
2023-09-09 12:50:00,SystemResetWarning,0836.4,4.99,000.00,028.5,027.2,000.0,036.9,030.1,11.8,0000.0,0011.32,0002.55,0001.20
2023-09-09 12:51:00,SystemResetWarning,0836.4,5.00,000.00,028.5,027.3,000.0,036.9,030.1,11.7,0000.0,0011.26,0002.59,0001.20
2023-09-09 12:52:00,SystemResetWarning,0836.4,5.00,000.00,028.5,027.4,000.0,036.9,030.1,11.7,0000.0,0010.87,0002.65,0001.20
2023-09-09 12:53:00,SystemResetWarning,0836.4,5.00,000.00,028.6,027.4,000.0,036.9,030.2,11.7,0000.0,0011.46,0002.65,0001.20
2023-09-09 12:54:00,SystemResetWarning,0836.4,5.01,000.00,028.6,027.5,000.0,036.9,030.2,11.5,0000.0,0011.59,0002.69,0001.19
2023-09-09 12:55:00,SystemResetWarning,0836.4,5.00,000.00,028.6,027.5,000.0,037.0,030.3,11.4,0000.0,0011.04,0002.67,0001.19
2023-09-09 12:56:00,SystemResetWarning,0836.4,5.00,000.00,028.7,027.6,000.0,037.0,030.3,11.3,0000.0,0011.77,0002.62,0001.19
2023-09-09 12:57:00,SystemResetWarning,0836.4,5.00,000.00,028.7,027.6,000.0,037.0,030.4,11.3,0000.0,0011.36,0002.47,0001.19
2023-09-09 12:58:00,SystemResetWarning,0836.5,4.99,000.00,028.7,027.6,000.0,037.0,030.4,11.2,0000.0,0011.97,0002.49,0001.18
2023-09-09 12:59:00,SystemResetWarning,0836.5,5.00,000.00,028.7,027.7,000.0,037.0,030.4,11.2,0000.0,0012.24,0002.48,0001.18
